Temp
21 19 21 22 24 25 22 29 31 29 28 28 27 27 26 25 25 21 19 18 18 17 17 17 17 17 17 18 18 17 17 17 18 17 18 18 18 18 18 18 18 18 18 18 18 19 19 19 18
21 22 22 24 22 23 27 29 28 29 28 27 26 26 26 24 23 20 18 18 19 17 18 16 17 17 17 17 17 17 17 17 17 18 18 18 18 18 18 18 18 18 18 18 19 18 18 18 18
20 22 25 28 19 24 27 28 29 28 27 28 26 25 26 24 23 21 20 18 17 17 17 17 17 17 17 17 17 17 17 17 17 18 18 18 17 18 17 18 18 17 18 19 19 19 19 18 18
22 24 25 21 28 29 29 29 28 28 27 27 26 25 24 23 22 21 18 18 18 17 16 17 17 17 17 17 17 17 17 17 17 18 17 17 18 18 18 18 18 18 18 18 18 18 18 18 18
23 26 23 26 27 28 29 29 29 29 28 27 25 25 23 22 22 21 19 20 20 18 17 15 16 16 16 17 17 17 17 17 18 17 18 18 18 18 18 18 18 18 18 18 18 18 18 18 19
25 27 25 25 27 28 28 28 29 28 27 26 26 25 23 22 22 22 22 21 19 18 17 16 16 16 16 16 16 17 17 18 17 17 17 17 18 18 18 18 18 18 18 18 18 19 19 19 19
26 24 25 20 25 27 27 28 27 28 28 27 26 25 23 22 22 22 22 22 20 18 18 16 16 16 16 16 16 17 17 18 17 17 17 18 18 18 18 18 18 18 18 18 18 18 18 19 19
26 27 23 25 24 23 26 26 26 27 27 26 26 26 24 22 22 22 22 21 20 20 19 18 17 17 17 16 16 16 16 17 16 16 17 18 18 18 18 18 18 18 18 18 18 18 19 19 20
26 23 22 22 22 21 25 27 26 27 26 26 26 25 24 22 22 22 21 22 19 19 19 17 17 18 18 17 16 16 16 16 16 16 17 18 18 17 17 18 18 18 18 18 19 19 20 20 20
28 25 26 28 23 22 25 25 27 27 27 26 26 24 23 22 22 22 22 22 21 21 19 18 18 17 17 18 18 18 17 17 16 17 17 18 18 18 18 18 19 19 19 19 19 20 20 20 21
28 26 28 25 25 23 22 25 26 27 27 27 25 24 23 22 23 23 23 23 22 22 20 19 18 17 17 16 17 17 18 17 17 18 18 18 18 18 18 19 19 19 20 20 20 20 21 21 22
27 26 27 25 23 24 23 23 26 25 21 27 25 24 23 23 24 24 24 23 22 21 20 19 19 19 19 18 15 17 18 18 17 17 17 18 20 20 20 20 20 19 20 20 21 22 21 21 21
28 27 26 24 22 21 22 23 25 25 26 26 25 24 24 24 24 24 24 23 22 21 21 19 19 18 18 19 18 17 18 19 19 18 18 20 20 20 20 20 20 21 21 21 21 21 21 21 22
28 27 26 25 23 21 20 20 24 25 26 26 25 25 24 25 24 24 23 22 22 21 21 20 19 18 18 18 18 19 18 19 19 19 19 19 20 20 20 20 21 21 22 22 21 21 22 23 23
27 27 27 26 25 20 18 19 23 24 26 26 26 25 25 25 24 23 23 22 22 21 21 20 19 18 18 17 18 20 20 20 20 20 18 19 19 19 21 21 21 22 20 20 21 21 22 23 23
27 27 21 26 25 22 20 20 18 23 25 26 26 24 25 24 24 23 23 23 22 22 20 19 20 19 18 18 19 20 20 21 21 20 19 19 18 19 20 21 21 21 21 22 22 23 23 23 23
29 24 26 26 27 25 23 19 21 21 23 24 26 25 24 24 24 23 23 23 22 21 20 20 20 19 18 18 18 19 20 20 21 21 20 19 19 19 20 21 21 20 22 22 22 23 22 23 23
18 27 29 25 27 27 25 24 22 20 23 21 24 25 25 24 24 24 23 23 22 20 19 19 19 19 18 17 18 19 19 20 21 21 20 19 19 19 20 20 20 20 22 22 21 22 22 22 23
29 24 29 29 28 27 27 26 24 22 23 23 24 26 25 24 24 24 24 23 22 19 19 19 19 18 18 18 19 19 20 20 21 21 20 18 19 18 20 20 20 20 21 20 21 21 22 22 22
29 28 29 29 29 28 28 27 25 23 23 23 23 24 26 26 23 24 24 23 22 20 20 19 18 18 17 18 19 19 20 21 20 20 19 19 19 18 19 19 20 20 20 20 20 21 22 23 22
31 30 30 29 29 29 29 28 28 25 24 24 25 25 26 25 24 24 23 23 23 21 20 19 18 18 17 19 19 19 19 20 20 20 20 19 18 18 18 18 19 20 20 21 20 21 21 22 22
30 32 30 29 29 22 22 21 26 28 27 26 25 25 25 25 24 23 24 24 23 22 21 20 18 18 17 18 19 19 19 20 21 20 20 20 18 19 19 18 19 20 19 20 20 20 21 21 23
31 31 31 30 30 25 23 24 18 27 28 28 28 28 27 25 25 25 23 24 24 23 21 20 18 18 18 18 19 19 19 20 20 21 21 20 19 18 19 18 18 18 19 19 20 19 20 21 21
32 31 30 30 31 29 32 31 26 28 30 29 29 28 28 25 25 24 23 23 22 22 22 21 19 18 17 17 18 18 19 19 20 21 21 20 20 19 19 19 18 18 18 19 19 18 19 20 21
31 30 29 29 30 30 30 30 30 29 31 31 30 29 28 28 26 25 24 23 23 23 23 22 19 18 18 18 18 17 18 18 19 19 20 21 21 21 20 20 18 19 19 18 18 18 19 19 19
30 31 30 26 27 27 30 29 30 31 30 30 28 28 26 26 26 26 25 24 23 23 23 22 20 18 18 18 18 18 17 18 18 18 20 21 22 22 21 19 19 19 18 19 18 18 19 19 20
30 30 33 29 30 29 26 30 31 31 31 29 29 27 27 26 25 26 25 24 23 23 23 22 21 19 18 18 18 18 17 18 19 19 20 19 21 21 21 20 19 19 19 19 19 19 19 19 19
31 32 30 31 27 27 30 30 30 29 30 30 29 28 27 25 24 25 25 24 23 23 23 22 21 20 19 19 19 18 18 17 18 19 19 19 20 20 20 19 19 19 19 18 18 19 20 19 19
30 30 31 31 31 30 29 30 32 31 30 30 29 28 27 26 24 24 24 24 24 23 22 22 21 21 20 20 19 19 19 18 18 19 19 19 19 18 19 19 18 19 19 18 18 18 19 18 19
32 31 31 30 28 31 30 29 31 31 31 30 28 26 25 24 24 23 23 22 23 23 22 21 22 21 21 21 20 20 19 19 19 18 19 18 18 19 18 18 18 18 18 18 18 18 19 19 19
Height
1506 1506 1509 1508 1507 1495 1511 1487 1480 1490 1493 1495 1500 1500 1506 1508 1508 1527 1531 1532 1534 1536 1538 1542 1544 1545 1546 1546 1548 1550 1552 1553 1553 1552 1552 1553 1553 1553 1556 1557 1558 1559 1559 1560 1561 1562 1563 1564 1564
1511 1511 1508 1502 1511 1510 1500 1488 1491 1489 1496 1500 1504 1506 1509 1517 1520 1526 1531 1535 1539 1540 1541 1544 1545 1546 1548 1549 1550 1552 1554 1554 1555 1555 1556 1557 1556 1557 1558 1560 1562 1561 1562 1563 1563 1564 1566 1567 1566
1508 1510 1503 1485 1510 1508 1498 1493 1494 1500 1501 1501 1507 1510 1511 1521 1525 1529 1533 1537 1539 1540 1544 1544 1546 1548 1550 1552 1552 1554 1555 1554 1557 1558 1559 1559 1560 1561 1561 1562 1564 1564 1565 1565 1566 1567 1569 1569 1569
1510 1507 1501 1501 1489 1485 1487 1492 1499 1500 1504 1506 1510 1518 1521 1526 1528 1532 1535 1539 1541 1542 1545 1544 1547 1549 1551 1552 1554 1555 1557 1559 1559 1561 1561 1562 1563 1564 1564 1566 1568 1567 1568 1569 1569 1570 1572 1572 1571
1510 1503 1502 1494 1492 1491 1490 1493 1496 1499 1504 1509 1513 1516 1526 1529 1532 1534 1537 1539 1543 1546 1547 1547 1548 1551 1552 1554 1556 1557 1559 1560 1560 1561 1563 1565 1565 1566 1567 1569 1569 1570 1571 1571 1572 1574 1574 1574 1574
1505 1496 1501 1502 1493 1492 1496 1497 1498 1503 1507 1512 1513 1520 1529 1533 1535 1537 1539 1542 1545 1547 1548 1548 1550 1552 1554 1555 1557 1558 1559 1561 1561 1562 1565 1567 1569 1569 1570 1572 1573 1573 1574 1575 1575 1577 1577 1577 1577
1501 1501 1498 1512 1495 1493 1499 1501 1506 1504 1505 1511 1515 1522 1531 1534 1536 1539 1541 1543 1547 1547 1547 1549 1552 1554 1556 1557 1558 1559 1561 1562 1563 1565 1567 1570 1570 1570 1573 1575 1575 1576 1577 1578 1579 1580 1580 1580 1580
1504 1495 1503 1496 1503 1508 1504 1508 1509 1508 1509 1516 1516 1519 1529 1534 1538 1540 1543 1546 1549 1551 1550 1551 1552 1554 1555 1557 1558 1559 1562 1564 1564 1566 1570 1571 1573 1575 1576 1578 1578 1578 1580 1581 1582 1583 1583 1583 1583
1502 1504 1507 1511 1509 1517 1510 1507 1509 1511 1514 1515 1517 1520 1528 1535 1538 1541 1545 1547 1549 1552 1553 1550 1552 1552 1553 1554 1557 1559 1562 1565 1566 1569 1573 1576 1577 1579 1579 1581 1580 1581 1582 1583 1584 1585 1586 1585 1586
1495 1502 1499 1495 1508 1514 1511 1510 1507 1510 1512 1517 1519 1524 1531 1536 1539 1541 1544 1547 1550 1553 1555 1554 1553 1553 1553 1552 1549 1555 1560 1565 1570 1574 1574 1579 1581 1581 1583 1582 1583 1584 1585 1586 1586 1587 1588 1587 1590
1494 1497 1498 1505 1507 1514 1515 1509 1509 1508 1512 1513 1522 1528 1532 1536 1539 1541 1543 1546 1550 1553 1555 1556 1553 1552 1550 1559 1561 1562 1561 1563 1568 1574 1577 1580 1581 1583 1586 1585 1585 1586 1587 1589 1588 1589 1589 1592 1593
1497 1501 1502 1509 1513 1513 1517 1518 1511 1511 1521 1514 1522 1528 1533 1536 1538 1540 1543 1546 1549 1554 1556 1557 1556 1555 1554 1559 1543 1556 1565 1568 1567 1574 1578 1580 1584 1585 1586 1587 1589 1589 1590 1591 1591 1592 1592 1593 1592
1493 1502 1505 1510 1516 1519 1520 1520 1515 1515 1515 1517 1522 1528 1532 1534 1537 1540 1543 1547 1551 1554 1556 1557 1559 1558 1558 1565 1566 1555 1571 1572 1570 1574 1578 1583 1585 1586 1588 1588 1589 1590 1591 1592 1592 1592 1593 1593 1594
1494 1501 1504 1507 1515 1520 1521 1522 1518 1514 1516 1519 1523 1528 1530 1532 1536 1540 1544 1548 1551 1554 1556 1559 1561 1561 1561 1563 1570 1571 1571 1570 1572 1577 1582 1584 1586 1585 1588 1588 1589 1591 1592 1592 1593 1593 1594 1594 1594
1497 1497 1496 1500 1508 1521 1521 1526 1518 1516 1517 1519 1521 1526 1529 1533 1536 1541 1544 1548 1551 1554 1557 1559 1562 1563 1563 1563 1566 1569 1570 1572 1576 1580 1582 1585 1586 1584 1586 1588 1589 1591 1590 1592 1594 1594 1595 1595 1595
1493 1489 1504 1498 1505 1519 1525 1534 1527 1514 1517 1518 1520 1527 1529 1533 1536 1541 1544 1547 1551 1553 1557 1559 1562 1564 1565 1567 1568 1570 1571 1575 1578 1581 1584 1585 1584 1587 1586 1588 1589 1592 1593 1594 1595 1595 1595 1595 1596
1483 1508 1495 1496 1497 1509 1518 1533 1527 1523 1521 1518 1518 1524 1530 1534 1537 1540 1543 1546 1550 1553 1556 1559 1562 1564 1565 1568 1570 1571 1574 1576 1579 1581 1583 1585 1587 1587 1587 1588 1588 1591 1593 1592 1594 1594 1595 1596 1596
1524 1498 1482 1501 1497 1499 1509 1515 1520 1522 1518 1519 1513 1521 1528 1532 1534 1538 1542 1546 1549 1553 1555 1558 1561 1564 1565 1567 1569 1572 1575 1577 1579 1581 1582 1584 1587 1587 1588 1589 1591 1591 1594 1594 1592 1592 1595 1595 1596
1488 1501 1483 1483 1490 1494 1496 1501 1511 1516 1513 1513 1510 1516 1522 1529 1531 1535 1539 1544 1547 1551 1554 1557 1559 1562 1564 1567 1570 1571 1574 1577 1579 1580 1580 1584 1586 1587 1588 1590 1591 1592 1592 1590 1594 1595 1595 1596 1596
1482 1488 1487 1485 1487 1488 1489 1496 1502 1510 1511 1510 1514 1517 1519 1521 1531 1532 1537 1539 1544 1547 1552 1554 1557 1560 1562 1566 1569 1571 1573 1576 1578 1580 1580 1584 1586 1587 1588 1589 1591 1591 1593 1593 1595 1593 1594 1595 1595
1474 1479 1484 1488 1484 1486 1487 1492 1491 1503 1509 1511 1513 1515 1517 1522 1524 1527 1533 1537 1540 1544 1549 1552 1554 1557 1560 1564 1567 1569 1572 1573 1577 1578 1580 1582 1584 1585 1586 1587 1589 1590 1591 1593 1593 1594 1592 1589 1592
1479 1470 1477 1488 1489 1522 1505 1529 1486 1488 1498 1504 1508 1512 1514 1517 1522 1524 1527 1532 1537 1539 1545 1549 1551 1554 1557 1560 1565 1567 1570 1572 1574 1577 1579 1580 1582 1584 1586 1587 1588 1589 1591 1591 1593 1593 1592 1589 1590
1476 1477 1475 1481 1483 1498 1507 1506 1522 1482 1493 1493 1496 1498 1504 1510 1517 1521 1524 1529 1531 1536 1540 1546 1548 1550 1554 1557 1561 1565 1568 1570 1572 1575 1577 1580 1580 1583 1586 1587 1588 1588 1590 1590 1591 1592 1592 1593 1592
1473 1476 1477 1477 1475 1490 1462 1473 1496 1483 1475 1473 1486 1494 1498 1504 1512 1516 1522 1526 1528 1532 1537 1541 1544 1547 1550 1553 1557 1561 1565 1567 1570 1572 1574 1577 1580 1581 1583 1586 1587 1588 1589 1589 1590 1591 1592 1592 1593
1473 1479 1489 1493 1486 1484 1470 1478 1471 1478 1475 1475 1484 1490 1495 1499 1505 1509 1516 1521 1525 1528 1532 1537 1541 1544 1547 1551 1554 1557 1560 1564 1568 1570 1573 1575 1577 1579 1579 1582 1585 1587 1587 1588 1588 1589 1589 1591 1592
1472 1471 1474 1511 1501 1494 1470 1483 1469 1468 1476 1480 1488 1492 1498 1501 1502 1504 1509 1516 1521 1526 1528 1533 1536 1541 1543 1547 1550 1553 1557 1562 1565 1567 1570 1574 1575 1577 1577 1579 1582 1584 1585 1587 1588 1588 1588 1590 1591
1468 1475 1452 1477 1474 1481 1494 1468 1463 1466 1474 1481 1486 1493 1496 1500 1501 1502 1506 1510 1516 1522 1525 1529 1533 1537 1541 1544 1547 1550 1553 1556 1562 1565 1568 1570 1572 1574 1575 1576 1580 1582 1583 1585 1586 1587 1587 1587 1588
1457 1455 1471 1461 1500 1502 1468 1467 1472 1473 1473 1476 1483 1490 1495 1499 1501 1501 1503 1507 1512 1517 1521 1526 1529 1533 1538 1541 1544 1547 1550 1552 1557 1561 1564 1567 1568 1570 1572 1574 1577 1579 1581 1581 1583 1584 1584 1584 1586
1464 1467 1459 1456 1456 1473 1478 1470 1445 1457 1465 1474 1482 1488 1493 1497 1500 1502 1503 1505 1508 1512 1516 1521 1525 1528 1533 1536 1540 1544 1547 1550 1553 1557 1560 1562 1565 1564 1568 1571 1573 1574 1577 1578 1579 1580 1580 1579 1582
1449 1453 1454 1467 1478 1460 1462 1471 1455 1459 1465 1472 1481 1491 1494 1498 1499 1501 1503 1505 1506 1508 1511 1515 1519 1523 1528 1531 1535 1539 1543 1547 1549 1553 1556 1559 1561 1564 1566 1568 1569 1571 1574 1575 1575 1576 1578 1579 1579
Wind_Speed
1 1 3 7 5 4 5 11 13 9 9 15 8 13 16 15 13 7 16 11 13 17 14 11 11 11 11 13 12 11 10 8 8 8 9 10 10 13 13 14 14 15 15 16 15 15 14 14 15
2 5 7 8 1 4 7 10 8 13 10 13 13 10 17 19 18 18 16 19 17 15 13 12 10 12 12 13 12 12 12 13 9 9 9 13 14 15 15 15 15 16 16 15 15 15 14 14 13
4 6 13 5 2 4 11 10 12 11 9 8 8 10 9 14 10 15 19 17 15 20 18 11 12 12 13 14 14 12 13 12 10 12 12 14 14 14 15 15 16 16 16 16 16 15 15 13 13
3 5 11 4 7 15 14 13 11 11 6 8 10 12 19 10 14 18 18 17 15 14 15 12 14 14 14 13 13 11 13 11 13 14 13 14 14 15 16 16 16 18 19 19 17 15 13 13 14
5 10 5 2 7 13 11 9 8 10 9 7 5 18 15 15 19 17 16 17 18 15 11 12 14 14 14 14 14 16 13 12 15 13 13 15 14 15 16 15 18 18 16 16 16 14 13 13 14
11 8 2 5 8 11 10 5 14 12 11 8 19 19 16 18 18 18 18 17 14 19 14 14 20 18 14 18 15 17 16 13 15 14 14 14 14 14 16 16 15 16 17 17 15 14 13 14 13
12 3 7 2 7 11 11 4 5 9 13 15 14 14 15 18 17 18 16 17 17 12 16 20 23 18 15 13 12 16 16 18 14 15 17 17 16 14 14 14 17 16 17 16 16 14 14 13 13
5 3 5 6 3 5 8 7 0 6 14 12 10 8 19 20 19 18 17 16 16 16 12 20 20 16 14 12 13 18 17 16 18 16 13 15 14 13 13 14 15 15 17 16 15 14 14 13 14
7 3 7 5 6 4 6 11 6 13 16 8 4 18 22 21 19 18 17 15 15 14 15 10 18 8 14 16 18 19 20 17 12 16 16 15 13 13 13 13 15 16 16 14 14 14 15 14 12
10 5 9 9 9 10 7 4 12 13 14 11 13 19 22 21 19 18 17 16 14 14 14 9 10 11 18 18 22 25 21 17 16 18 15 9 12 12 10 14 15 14 13 12 13 14 15 10 6
3 4 3 9 8 15 2 6 5 12 6 15 17 22 22 20 17 16 15 15 15 14 11 9 11 12 11 16 15 23 22 18 16 18 15 11 11 13 11 14 12 11 13 10 10 7 8 4 5
2 5 4 10 11 11 11 2 4 9 8 12 18 19 21 18 17 16 15 14 15 14 13 12 10 7 3 2 26 19 15 12 13 12 13 12 11 12 10 10 10 8 5 9 6 4 5 3 6
6 7 9 12 11 10 7 5 4 6 7 9 19 18 19 17 15 15 14 15 14 14 13 12 11 8 5 7 10 11 17 14 12 12 10 9 10 11 10 11 9 8 7 6 4 5 3 3 3
8 10 11 10 11 6 4 2 3 6 10 15 19 19 17 17 16 15 14 15 15 15 14 12 10 8 7 4 10 11 15 12 12 10 12 9 10 10 11 9 9 8 6 6 5 4 3 4 3
12 10 12 11 10 5 11 7 4 9 14 16 19 18 14 14 15 15 15 15 15 15 14 12 12 10 8 7 10 7 10 12 11 13 12 8 10 5 12 9 8 8 3 7 5 5 4 4 4
9 9 4 11 14 15 10 10 3 8 8 14 18 16 16 16 16 14 14 15 15 15 15 13 12 11 10 10 9 9 8 10 11 11 11 9 8 9 8 7 10 8 6 6 5 3 3 3 3
8 6 8 10 9 13 9 3 9 8 10 12 20 21 16 16 16 15 14 14 16 16 15 14 14 12 12 13 10 10 10 9 10 10 12 10 8 8 8 5 5 4 5 5 6 6 4 4 3
4 10 5 13 10 15 15 11 15 13 17 14 14 21 20 18 19 17 16 15 14 16 15 15 14 14 13 13 13 11 11 9 10 10 10 11 7 6 8 5 4 4 5 4 1 4 2 3 5
11 13 1 7 11 11 12 14 15 18 18 13 7 19 24 22 20 19 17 16 16 16 15 15 16 15 14 13 11 10 11 11 11 10 10 10 8 7 11 4 4 4 0 2 5 4 2 3 3
9 4 3 5 8 9 8 12 18 20 18 18 18 17 19 22 21 20 19 19 18 18 17 17 16 16 16 14 14 13 11 12 13 10 9 9 9 9 6 9 5 6 2 4 4 5 3 3 3
11 8 3 3 6 10 5 14 15 19 19 18 20 20 16 16 18 23 22 19 20 20 18 18 18 18 18 16 14 12 12 8 13 12 9 11 9 7 9 7 10 8 6 5 5 4 7 6 7
18 12 5 4 10 2 19 2 10 17 15 20 24 24 22 21 20 17 16 20 19 20 18 19 19 19 18 19 16 15 14 15 14 13 9 11 11 7 8 8 9 9 7 9 5 6 8 9 2
15 9 3 6 11 13 13 5 3 13 16 16 19 24 24 25 26 25 24 18 20 21 20 19 20 21 20 21 20 18 17 14 13 14 12 13 10 9 9 8 7 7 5 7 11 7 7 6 10
17 7 7 10 14 10 10 7 14 10 9 14 22 17 20 28 25 25 26 25 17 20 19 21 22 22 22 21 25 21 18 17 14 15 14 10 12 10 10 8 7 8 6 7 5 7 8 9 8
17 13 11 10 11 8 4 7 9 15 3 7 9 7 8 12 23 25 26 24 22 23 22 22 22 23 22 22 21 23 20 18 14 20 15 12 12 12 15 10 9 8 8 6 5 8 10 8 8
17 18 12 7 4 9 5 5 7 10 9 8 8 8 7 8 13 20 23 25 24 24 24 24 23 22 22 21 23 24 23 20 19 16 15 14 13 12 9 7 7 8 9 9 8 7 7 7 9
16 18 22 10 20 12 11 4 12 12 9 11 10 8 7 5 6 13 18 23 22 26 26 25 24 22 21 21 21 22 23 22 21 20 18 17 15 10 16 16 9 9 10 11 11 9 9 12 7
12 11 13 10 10 11 7 7 6 10 10 10 10 9 7 4 3 5 14 22 24 26 24 24 25 23 22 20 20 19 20 20 23 22 20 21 14 19 9 13 11 11 11 8 11 11 13 13 14
12 12 12 12 11 9 9 7 9 11 13 9 9 6 6 4 4 3 7 15 20 24 26 24 25 26 24 22 22 19 20 20 23 22 21 21 21 14 9 17 12 13 13 13 12 12 18 13 8
11 16 17 9 13 9 10 5 6 7 5 9 10 7 5 2 1 2 5 10 15 22 25 30 27 28 25 25 24 23 21 20 21 23 24 24 21 19 17 15 16 14 14 15 17 12 11 12 11
Wind_Direction
226 57 256 250 246 170 323 101 90 120 93 74 60 58 68 33 37 81 133 137 152 147 160 149 128 128 126 129 124 125 126 125 121 120 112 117 116 118 114 114 116 116 116 115 111 109 108 109 107
142 237 254 274 50 326 73 85 85 60 94 96 66 12 73 71 86 115 112 128 134 142 145 143 144 129 128 131 130 132 135 118 114 118 117 118 111 115 117 114 114 115 112 112 115 110 112 109 110
175 236 267 233 276 129 97 96 83 90 119 117 97 35 44 102 74 106 120 126 138 139 138 157 151 141 133 134 126 119 112 113 128 123 122 117 111 113 114 116 114 111 114 115 113 112 108 109 107
223 232 254 21 102 72 101 100 116 117 105 93 126 91 88 79 106 116 119 122 121 117 123 144 142 142 135 136 129 127 131 134 126 125 124 121 119 117 114 114 117 114 114 114 111 108 110 108 106
244 258 267 301 83 88 81 102 104 76 96 130 117 111 96 96 117 118 121 130 121 117 123 134 144 135 132 137 140 132 127 129 124 126 126 123 121 120 119 122 120 115 118 113 109 109 108 107 107
260 253 228 195 142 117 97 84 78 83 83 119 109 114 107 123 121 119 119 118 119 121 114 114 133 123 119 136 136 131 126 119 118 124 128 124 121 122 123 126 120 120 115 112 106 106 106 102 106
260 350 273 98 182 125 115 84 48 115 117 115 132 120 133 137 132 126 124 120 116 107 106 112 124 109 106 115 134 124 128 130 128 124 124 119 119 120 130 126 125 121 117 111 106 104 101 102 102
278 217 322 26 133 89 113 102 3 118 84 118 104 144 153 146 140 132 129 127 126 126 125 115 119 114 108 100 122 130 132 131 123 116 119 115 124 135 137 126 125 125 122 115 108 103 99 101 104
255 344 193 193 156 113 201 153 105 104 138 106 118 140 147 149 146 141 137 136 128 131 132 126 134 154 137 114 110 136 136 139 130 119 112 106 103 110 115 147 130 130 126 119 111 103 96 93 100
270 327 24 60 120 154 215 179 143 144 119 114 101 119 144 150 153 150 152 147 145 147 152 134 144 166 154 130 125 129 137 145 139 127 112 126 133 136 148 143 130 132 125 116 110 103 77 82 92
10 20 73 90 112 142 136 120 190 149 132 130 137 144 150 155 160 157 159 157 156 153 137 161 173 135 154 151 136 143 146 142 141 124 114 145 139 131 128 125 125 126 104 105 103 70 66 124 137
234 61 72 115 128 150 145 243 155 62 185 113 139 152 155 161 167 160 160 158 155 158 156 143 149 155 86 132 140 148 119 106 99 131 134 134 137 137 141 141 143 146 130 153 149 135 138 127 146
101 105 111 129 113 100 133 148 80 161 122 138 143 153 161 165 164 163 159 160 160 160 158 162 150 159 163 117 123 109 134 135 140 119 132 136 133 136 138 150 154 146 148 135 122 117 129 137 144
112 123 131 149 139 121 109 9 241 189 151 144 153 159 165 165 169 161 164 165 163 162 160 162 158 160 155 141 133 136 131 127 125 144 149 145 145 148 145 143 137 145 145 145 139 152 134 129 157
150 152 151 144 140 118 87 348 235 249 159 158 164 160 161 160 158 165 167 170 169 165 165 167 161 159 157 141 138 132 136 136 145 151 148 159 142 176 135 134 146 146 172 145 131 131 133 130 143
208 131 288 132 143 146 129 211 105 289 159 173 167 156 164 163 163 164 167 171 171 168 168 169 163 167 160 153 151 151 147 146 153 154 163 162 120 145 104 148 144 153 158 161 170 176 171 156 155
178 208 161 135 172 145 167 132 213 202 201 211 172 166 168 178 169 169 167 169 172 173 169 171 171 170 166 169 160 154 161 152 158 164 170 168 158 160 112 149 135 158 169 139 199 178 223 201 207
64 319 136 152 161 172 193 149 171 195 211 193 237 166 178 182 188 176 175 173 171 177 175 170 175 175 171 174 162 177 154 167 170 173 172 186 174 168 140 175 139 128 169 197 271 132 192 228 229
158 144 143 101 137 187 202 172 173 183 221 178 228 180 183 191 186 178 185 177 181 181 177 178 174 181 177 179 181 177 178 179 179 181 192 184 189 195 166 166 178 163 206 293 156 219 163 202 225
166 303 66 100 149 237 186 170 167 183 199 195 196 228 204 194 177 180 188 190 190 186 188 185 182 191 185 185 188 194 194 190 190 196 188 191 199 202 195 192 201 224 216 205 201 211 181 201 224
251 195 187 326 177 228 223 181 165 172 192 201 200 220 201 200 191 192 188 195 200 192 195 199 189 195 194 190 192 200 194 198 196 196 214 217 200 208 204 216 198 229 192 232 206 207 222 256 188
251 224 162 238 261 114 314 198 247 165 188 189 196 203 209 207 210 211 203 196 202 200 198 202 198 198 201 191 198 197 194 195 199 208 204 209 203 217 222 218 220 225 205 228 222 225 218 280 297
257 210 235 266 259 156 248 114 206 213 188 196 209 204 202 197 206 210 207 213 205 202 196 204 203 200 199 203 189 205 197 202 200 208 209 210 226 202 214 220 232 236 228 255 210 218 233 242 268
243 222 227 226 245 258 203 260 197 168 187 175 178 210 205 187 204 200 212 220 226 206 199 199 205 205 203 206 199 201 209 207 210 204 206 212 208 211 208 220 234 237 234 253 236 236 239 224 227
222 220 227 219 221 240 126 271 132 154 154 130 147 175 204 217 193 196 208 213 218 208 200 202 202 203 203 204 212 207 205 211 211 216 213 207 209 213 225 239 226 239 250 236 231 254 213 243 244
211 226 242 208 332 181 163 237 164 128 121 126 141 144 168 202 214 214 207 211 208 210 204 203 200 203 203 203 208 211 209 210 211 218 206 216 222 216 212 203 219 238 231 241 257 266 256 249 255
191 228 257 181 241 224 211 204 158 157 164 153 160 160 172 194 224 220 211 205 203 208 204 204 200 203 204 205 210 212 213 210 213 212 215 218 221 233 212 227 215 227 231 245 249 264 249 248 248
274 220 240 219 254 259 300 175 117 153 176 167 166 182 153 164 180 213 207 209 211 204 208 204 204 204 206 205 210 210 213 213 203 208 215 213 222 225 228 217 222 229 240 231 246 249 252 245 238
203 236 257 292 288 296 232 224 164 168 148 174 184 148 153 156 154 176 200 210 208 207 206 205 208 204 208 206 210 209 214 214 206 208 215 221 218 244 218 236 225 230 233 240 254 249 237 254 229
272 209 226 227 229 264 303 76 90 105 136 173 140 165 156 151 164 220 211 212 215 214 212 208 206 207 209 212 211 211 214 213 215 217 220 224 224 228 235 242 242 240 239 240 241 237 236 253 255